Regional Weather Roundup
Issued by NWS Nashville, TN

Home | Current Version | Previous Version | Text Only | Print | Product List | Glossary On
Versions: 1 2 3 4 5 6 7 8 9 10 11 12 13 14 15 16 17 18 19 20 21 22 23 24 25 26 27 28 29 30 31 32 33 34 35 36 37 38 39 40 41 42 43 44 45 46 47 48 49 50
000
ASUS44 KOHX 200210
RWROHX
MIDDLE TENNESSEE HOURLY WEATHER ROUNDUP
NATIONAL WEATHER SERVICE NASHVILLE TN
800 PM CST THU JAN 19 2017

NOTE: "FAIR" INDICATES FEW OR NO CLOUDS BELOW 12,000 FEET WITH
NO SIGNIFICANT WEATHER AND/OR OBSTRUCTIONS TO VISIBILITY.

* THESE REPORTS ARE NOT UNDER NWS QUALITY CONTROL AND MAY NOT
  REPORT WEATHER SUCH AS PRECIPITATION AND FOG.


TNZ005>011-023>034-057-059-062>066-078-080-200300
...NORTHERN MIDDLE TENNESSEE...

CITY           SKY/WX    TMP DP  RH WIND       PRES   REMARKS
CLARKSVILLE    CLOUDY    55  54  96 CALM      29.71F FOG
CROSSVILLE     LGT RAIN  49  46  90 VRB3      29.84F FOG
GALLATIN       CLOUDY    59  59 100 E7        29.73F
LEBANON        CLOUDY    58  58 100 SE7       29.69F
NASHVILLE      RAIN      60  58  92 W7        29.71F FOG
PORTLAND       CLOUDY    59  59 100 SE7       29.70F
SMYRNA         LGT RAIN  59  58  96 S6        29.72F
SPRINGFIELD    CLOUDY    57  57 100 W5        29.71F FOG
WEST NASHVILLE CLOUDY    55  55 100 CALM      29.71F
$$
TNZ056-058-060-061-075>077-079-093>097-200300
...SOUTHERN MIDDLE TENNESSEE...

CITY           SKY/WX    TMP DP  RH WIND       PRES   REMARKS
COLUMBIA       MOCLDY   N/A N/A N/A SW5       29.72S
MCMINNVILLE    CLOUDY    59  59 100 VRB7      29.77F
SHELBYVILLE    CLOUDY    63  63 100 SE13      29.74R
TULLAHOMA      MOCLDY    57  57 100 SE14      29.76F
WINCHESTER     CLOUDY    59  57  94 SE8       29.78F
$$


...KEY TO REMARKS...
VSB - VISIBILITY IN MILES
WCI - WIND CHILL INDEX
HX  - HEAT INDEX




USA.gov is the U.S. government's official web portal to all federal, state and local government web resources and services.